Location: Unspecified
(0.0000°N, 0.0000°E)
Time: 20:36:16
(UTC+00:00)

Tiros 1 - All Passes

Search period start: 14 July 2020 00:00
Search period end: 24 July 2020 00:00
Orbit: 630 x 664 km, 48.4° (Epoch: 13 July)

Date Brightness Start Highest point End Pass type
(mag) Time Alt. Az. Time Alt. Az. Time Alt. Az.
14 Jul - 04:46:43 10° NW 04:51:29 67° SW 04:56:15 10° SSE visible
14 Jul - 15:19:25 10° S 15:22:27 17° SE 15:25:28 10° E daylight
14 Jul - 17:00:16 10° WSW 17:04:28 35° NW 17:08:40 10° NNE daylight
15 Jul - 03:31:10 10° NNW 03:35:25 32° NE 03:39:41 10° ESE visible
15 Jul - 05:13:53 10° W 05:17:28 21° SW 05:21:03 10° S visible
15 Jul - 15:43:55 10° SSW 15:48:26 57° SE 15:52:57 10° NE daylight
15 Jul - 17:29:27 10° WNW 17:30:30 11° NW 17:31:34 10° NW daylight
16 Jul - 03:56:35 10° NW 04:01:23 77° SW 04:06:11 10° SE visible
16 Jul - 14:29:40 10° SSE 14:32:21 15° SE 14:35:02 10° E daylight
16 Jul - 16:10:04 10° WSW 16:14:23 40° NW 16:18:41 10° NNE daylight
17 Jul - 02:41:13 10° N 02:45:19 28° NE 02:49:25 10° ESE night (unlit)
17 Jul - 04:23:32 10° WNW 04:27:21 23° SW 04:31:10 10° S visible
17 Jul - 14:53:53 10° SSW 14:58:21 49° SE 15:02:48 10° NE daylight
17 Jul - 16:38:32 10° WNW 16:40:24 12° NW 16:42:16 10° NNW daylight
18 Jul - 03:06:28 10° NW 03:11:16 87° SW 03:16:06 10° SE night (unlit)
18 Jul - 13:40:00 10° SSE 13:42:15 13° SE 13:44:29 10° E daylight
18 Jul - 15:19:53 10° SW 15:24:18 45° NW 15:28:42 10° NNE daylight
19 Jul - 01:51:17 10° N 01:55:12 25° NE 01:59:08 10° ESE night (unlit)
19 Jul - 03:33:14 10° WNW 03:37:14 26° SW 03:41:15 10° S night (unlit)
19 Jul - 14:03:53 10° SSW 14:08:16 43° SE 14:12:38 10° ENE daylight
19 Jul - 15:47:54 10° W 15:50:18 14° NW 15:52:41 10° NNW daylight
20 Jul - 02:16:23 10° NW 02:21:09 83° NE 02:25:59 10° SE night (unlit)
20 Jul - 12:50:28 10° SSE 12:52:09 12° SE 12:53:49 10° ESE daylight
20 Jul - 14:29:43 10° SW 14:34:13 52° NW 14:38:41 10° NNE daylight
21 Jul - 01:01:24 10° N 01:05:05 22° NE 01:08:48 10° ESE night (unlit)
21 Jul - 02:42:57 10° WNW 02:47:08 29° SW 02:51:19 10° S night (unlit)
21 Jul - 13:13:53 10° SSW 13:18:11 38° SE 13:22:27 10° ENE daylight
21 Jul - 14:57:24 10° W 15:00:12 16° NW 15:03:00 10° NNW daylight
22 Jul - 01:26:17 10° NNW 01:31:04 73° NE 01:35:51 10° SE night (unlit)
22 Jul - 12:01:25 10° SE 12:02:02 10° SE 12:02:39 10° ESE daylight
22 Jul - 13:39:34 10° SW 13:44:08 60° NW 13:48:39 10° NNE daylight
23 Jul - 00:11:32 10° N 00:14:58 20° NE 00:18:26 10° E night (unlit)
23 Jul - 01:52:42 10° WNW 01:57:01 33° SW 02:01:21 10° SSE night (unlit)
23 Jul - 12:23:54 10° SSW 12:28:06 33° SE 12:32:15 10° ENE daylight
23 Jul - 14:06:58 10° W 14:10:06 18° NW 14:13:14 10° N daylight
